Date String (YYYY-MM-DD hh:mm:ss) UTC,Instrument flags,Ambient pressure (hPa),Sample flow (lpm),Bypass flow (lpm),Sample temperature (°C),Ambient temperature (°C),ASC tube jacket temperature (°C),LED temperature (°C),Box temperature (°C),Sample RH (%),Span deviation,Mass concentration (μg/m³),Mass concentration (μg/m³),Mass concentration (μg/m³)
DateTimeUTC,F1_M11,P_M11,Q1_M11,Q2_M11,T1_M11,T2_M11,T3_M11,T4_M11,T5_M11,U1_M11,ZSPAN_M11,X0_M11,X2_M11,X1_M11
2021-10-16 11:00:00,,0833.8,5.00,0.00,25.0,23.9,00.0,34.1,26.7,09.2,0000.0,0005.15,0002.65,0001.77
2021-10-16 11:01:00,,0833.8,5.00,0.00,24.9,23.9,00.0,34.1,26.6,09.2,0000.0,0005.29,0002.72,0001.77
2021-10-16 11:02:00,,0833.8,5.00,0.00,24.9,23.9,00.0,34.1,26.7,09.2,0000.0,0005.27,0002.72,0001.77
2021-10-16 11:03:00,,0833.8,4.99,0.00,24.9,23.9,00.0,34.1,26.7,09.2,0000.0,0005.23,0002.68,0001.75
2021-10-16 11:04:00,,0833.7,5.01,0.00,24.9,23.9,00.0,34.1,26.7,09.1,0000.0,0006.14,0002.71,0001.74
2021-10-16 11:05:00,,0833.7,4.99,0.00,24.9,23.9,00.0,34.1,26.6,09.1,0000.0,0006.17,0002.73,0001.75
2021-10-16 11:06:00,,0833.7,5.00,0.00,24.9,23.9,00.0,34.1,26.7,09.1,0000.0,0006.14,0002.72,0001.75
2021-10-16 11:07:00,,0833.7,5.01,0.00,24.9,23.9,00.0,34.1,26.7,09.1,0000.0,0006.01,0002.68,0001.74
2021-10-16 11:08:00,,0833.7,5.00,0.00,24.9,23.9,00.0,34.1,26.7,09.1,0000.0,0005.99,0002.68,0001.72
2021-10-16 11:09:00,,0833.7,5.00,0.00,24.9,23.9,00.0,34.0,26.7,09.1,0000.0,0005.99,0002.68,0001.73
2021-10-16 11:10:00,,0833.7,5.00,0.00,24.9,23.9,00.0,34.0,26.6,09.1,0000.0,0005.39,0002.61,0001.73
2021-10-16 11:11:00,,0833.7,4.99,0.00,24.9,23.9,00.0,34.0,26.6,09.1,0000.0,0005.11,0002.56,0001.72
2021-10-16 11:12:00,,0833.7,5.00,0.00,24.9,23.8,00.0,34.0,26.6,09.1,0000.0,0005.11,0002.52,0001.73
2021-10-16 11:13:00,,0833.7,5.00,0.00,24.9,23.8,00.0,34.0,26.6,09.2,0000.0,0004.98,0002.45,0001.71
2021-10-16 11:14:00,,0833.7,5.00,0.00,24.9,23.8,00.0,34.0,26.6,09.2,0000.0,0004.87,0002.41,0001.69
2021-10-16 11:15:00,,0833.6,4.99,0.00,24.9,23.8,00.0,34.0,26.6,09.2,0000.0,0004.06,0002.39,0001.69
2021-10-16 11:16:00,,0833.7,5.00,0.00,24.9,23.8,00.0,34.0,26.6,09.2,0000.0,0003.96,0002.38,0001.70
2021-10-16 11:17:00,,0833.7,5.01,0.00,24.8,23.8,00.0,34.0,26.6,09.2,0000.0,0004.00,0002.39,0001.70
2021-10-16 11:18:00,,0833.7,4.99,0.00,24.8,23.8,00.0,34.0,26.6,09.2,0000.0,0004.02,0002.38,0001.70
2021-10-16 11:19:00,,0833.7,5.01,0.00,24.8,23.8,00.0,34.0,26.6,09.2,0000.0,0004.07,0002.39,0001.70
2021-10-16 11:20:00,,0833.8,4.99,0.00,24.8,23.8,00.0,34.0,26.5,09.2,0000.0,0003.93,0002.33,0001.69
2021-10-16 11:21:00,,0833.8,5.00,0.00,24.8,23.7,00.0,34.0,26.6,09.2,0000.0,0003.98,0002.34,0001.68
2021-10-16 11:22:00,,0833.8,5.00,0.00,24.8,23.8,00.0,34.0,26.6,09.2,0000.0,0004.07,0002.38,0001.68
2021-10-16 11:23:00,,0833.8,5.00,0.00,24.8,23.8,00.0,33.9,26.6,09.2,0000.0,0003.92,0002.35,0001.66
2021-10-16 11:24:00,,0833.9,5.00,0.00,24.8,23.7,00.0,33.9,26.6,09.2,0000.0,0003.85,0002.33,0001.67
2021-10-16 11:25:00,,0833.9,5.01,0.00,24.8,23.7,00.0,33.9,26.6,09.2,0000.0,0003.87,0002.35,0001.68
2021-10-16 11:26:00,,0833.9,4.98,0.00,24.7,23.7,00.0,33.9,26.5,09.3,0000.0,0003.85,0002.40,0001.69
2021-10-16 11:27:00,,0833.9,5.01,0.00,24.7,23.7,00.0,33.9,26.5,09.5,0000.0,0003.73,0002.37,0001.68
2021-10-16 11:28:00,,0833.9,5.00,0.00,24.7,23.7,00.0,33.9,26.5,09.4,0000.0,0003.62,0002.33,0001.68
2021-10-16 11:29:00,,0833.9,5.00,0.00,24.7,23.7,00.0,33.9,26.5,09.3,0000.0,0004.18,0002.35,0001.69
2021-10-16 11:30:00,,0833.9,5.01,0.00,24.7,23.7,00.0,33.9,26.4,09.3,0000.0,0004.92,0002.36,0001.72
2021-10-16 11:31:00,,0833.9,4.99,0.00,24.7,23.7,00.0,33.9,26.5,09.4,0000.0,0005.25,0002.39,0001.74
2021-10-16 11:32:00,,0833.9,5.00,0.00,24.7,23.7,00.0,33.9,26.5,09.3,0000.0,0005.40,0002.45,0001.74
2021-10-16 11:33:00,,0833.9,5.00,0.00,24.7,23.7,00.0,33.9,26.5,09.2,0000.0,0005.30,0002.43,0001.76
2021-10-16 11:34:00,,0834.0,4.99,0.00,24.7,23.7,00.0,33.9,26.4,09.2,0000.0,0005.20,0002.43,0001.77
2021-10-16 11:35:00,,0833.9,4.99,0.00,24.7,23.7,00.0,33.9,26.4,09.2,0000.0,0005.35,0002.48,0001.78
2021-10-16 11:36:00,,0834.0,5.00,0.00,24.7,23.7,00.0,33.8,26.5,09.2,0000.0,0005.37,0002.48,0001.78
2021-10-16 11:37:00,,0834.0,4.99,0.00,24.7,23.7,00.0,33.8,26.5,09.2,0000.0,0005.34,0002.44,0001.77
2021-10-16 11:38:00,,0834.0,5.00,0.00,24.7,23.7,00.0,33.8,26.5,09.2,0000.0,0005.55,0002.53,0001.77
2021-10-16 11:39:00,,0834.0,5.00,0.00,24.7,23.7,00.0,33.8,26.5,09.2,0000.0,0005.53,0002.53,0001.79
2021-10-16 11:40:00,,0834.0,5.01,0.00,24.7,23.7,00.0,33.8,26.5,09.2,0000.0,0005.28,0002.59,0001.79
2021-10-16 11:41:00,,0834.0,4.99,0.00,24.7,23.7,00.0,33.8,26.5,09.2,0000.0,0004.48,0002.61,0001.78
2021-10-16 11:42:00,,0834.0,5.00,0.00,24.7,23.7,00.0,33.8,26.5,09.3,0000.0,0004.30,0002.65,0001.78
2021-10-16 11:43:00,,0834.0,5.00,0.00,24.7,23.7,00.0,33.8,26.5,09.3,0000.0,0004.43,0002.62,0001.79
2021-10-16 11:44:00,,0834.0,5.01,0.00,24.7,23.7,00.0,33.8,26.5,09.4,0000.0,0004.43,0002.62,0001.79
2021-10-16 11:45:00,,0834.0,4.99,0.00,24.7,23.7,00.0,33.8,26.5,09.4,0000.0,0004.46,0002.61,0001.80
2021-10-16 11:46:00,,0834.0,5.01,0.00,24.7,23.7,00.0,33.8,26.5,09.5,0000.0,0004.45,0002.62,0001.82
2021-10-16 11:47:00,,0834.0,4.99,0.00,24.7,23.7,00.0,33.8,26.5,09.5,0000.0,0004.80,0002.63,0001.83
2021-10-16 11:48:00,,0834.0,5.01,0.00,24.7,23.7,00.0,33.8,26.5,09.5,0000.0,0006.16,0002.63,0001.86
2021-10-16 11:49:00,,0834.1,4.99,0.00,24.7,23.7,00.0,33.8,26.4,09.5,0000.0,0006.36,0002.66,0001.88
2021-10-16 11:50:00,,0834.1,5.01,0.00,24.7,23.7,00.0,33.8,26.4,09.5,0000.0,0006.53,0002.73,0001.90
2021-10-16 11:51:00,,0834.1,4.99,0.00,24.7,23.7,00.0,33.8,26.5,09.5,0000.0,0006.58,0002.76,0001.91
2021-10-16 11:52:00,,0834.0,4.99,0.00,24.7,23.7,00.0,33.8,26.4,09.5,0000.0,0007.40,0002.77,0001.94
2021-10-16 11:53:00,,0834.0,5.01,0.00,24.6,23.7,00.0,33.8,26.4,09.5,0000.0,0007.87,0002.77,0001.96
2021-10-16 11:54:00,,0834.0,5.00,0.00,24.6,23.7,00.0,33.8,26.4,09.5,0000.0,0007.82,0002.78,0001.97
2021-10-16 11:55:00,,0834.0,5.00,0.00,24.6,23.7,00.0,33.8,26.5,09.4,0000.0,0007.87,0002.82,0001.98
2021-10-16 11:56:00,,0834.1,5.01,0.00,24.6,23.7,00.0,33.8,26.5,09.4,0000.0,0008.32,0002.86,0001.99
2021-10-16 11:57:00,,0834.1,4.99,0.00,24.6,23.7,00.0,33.8,26.4,09.4,0000.0,0008.55,0002.88,0001.99
2021-10-16 11:58:00,,0834.1,5.00,0.00,24.6,23.7,00.0,33.8,26.4,09.4,0000.0,0008.35,0002.85,0001.99
2021-10-16 11:59:00,,0834.1,5.00,0.00,24.6,23.7,00.0,33.8,26.4,09.5,0000.0,0007.52,0002.82,0002.00
